Time,TemperatureF,DewpointF,PressureIn,WindDirection,WindDirectionDegrees,WindSpeedMPH,WindSpeedGustMPH,Humidity,HourlyPrecipIn,Conditions,Clouds,dailyrainin,SolarRadiationWatts/m^2,SoftwareType,DateUTC
2013-03-08 00:05:00,14.2,12.0,30.39,ESE,111,1.0,3.0,91,0.00,,,0.00,0,weatherlink.com 1.10,2013-03-08 06:05:00,
2013-03-08 00:20:00,13.1,11.0,30.39,ESE,111,4.0,5.0,90,0.00,,,0.00,0,weatherlink.com 1.10,2013-03-08 06:20:00,
2013-03-08 00:35:00,13.8,12.0,30.39,ESE,111,4.0,5.0,91,0.00,,,0.00,0,weatherlink.com 1.10,2013-03-08 06:35:00,
2013-03-08 00:50:00,14.1,12.0,30.39,ESE,111,3.0,4.0,91,0.00,,,0.00,0,weatherlink.com 1.10,2013-03-08 06:50:00,
2013-03-08 01:05:00,11.3,9.0,30.40,ESE,111,0.0,3.0,88,0.00,,,0.00,0,weatherlink.com 1.10,2013-03-08 07:05:00,
2013-03-08 01:20:00,10.6,8.0,30.40,ESE,111,0.0,0.0,89,0.00,,,0.00,0,weatherlink.com 1.10,2013-03-08 07:20:00,
2013-03-08 01:35:00,10.5,8.0,30.40,ESE,111,2.0,2.0,90,0.00,,,0.00,0,weatherlink.com 1.10,2013-03-08 07:35:00,
2013-03-08 01:50:00,11.1,9.0,30.40,ESE,111,2.0,3.0,90,0.00,,,0.00,0,weatherlink.com 1.10,2013-03-08 07:50:00,
2013-03-08 02:05:00,10.5,8.0,30.40,ESE,111,3.0,4.0,89,0.00,,,0.00,0,weatherlink.com 1.10,2013-03-08 08:05:00,
2013-03-08 02:20:00,9.2,6.0,30.41,ESE,111,2.0,3.0,88,0.00,,,0.00,0,weatherlink.com 1.10,2013-03-08 08:20:00,
2013-03-08 02:35:00,9.8,8.0,30.40,ESE,111,0.0,1.0,90,0.00,,,0.00,0,weatherlink.com 1.10,2013-03-08 08:35:00,
2013-03-08 02:50:00,9.9,7.0,30.40,ESE,111,1.0,3.0,89,0.00,,,0.00,0,weatherlink.com 1.10,2013-03-08 08:50:00,
2013-03-08 03:05:00,10.6,8.0,30.40,ESE,111,0.0,0.0,90,0.00,,,0.00,0,weatherlink.com 1.10,2013-03-08 09:05:00,
2013-03-08 03:20:00,11.3,9.0,30.41,ESE,111,0.0,0.0,91,0.00,,,0.00,0,weatherlink.com 1.10,2013-03-08 09:20:00,
2013-03-08 03:35:00,12.1,10.0,30.40,ESE,111,0.0,0.0,91,0.00,,,0.00,0,weatherlink.com 1.10,2013-03-08 09:35:00,
2013-03-08 03:50:00,11.9,9.0,30.41,ESE,111,0.0,0.0,89,0.00,,,0.00,0,weatherlink.com 1.10,2013-03-08 09:50:00,
2013-03-08 04:05:00,11.6,9.0,30.40,ESE,111,1.0,1.0,90,0.00,,,0.00,0,weatherlink.com 1.10,2013-03-08 10:05:00,
2013-03-08 04:20:00,11.7,9.0,30.40,ESE,111,1.0,2.0,90,0.00,,,0.00,0,weatherlink.com 1.10,2013-03-08 10:20:00,
2013-03-08 04:35:00,10.7,8.0,30.40,ESE,111,1.0,2.0,88,0.00,,,0.00,0,weatherlink.com 1.10,2013-03-08 10:35:00,
2013-03-08 04:50:00,9.4,7.0,30.41,ESE,111,0.0,2.0,88,0.00,,,0.00,0,weatherlink.com 1.10,2013-03-08 10:50:00,
2013-03-08 05:05:00,9.0,6.0,30.41,ESE,111,1.0,1.0,88,0.00,,,0.00,0,weatherlink.com 1.10,2013-03-08 11:05:00,
2013-03-08 05:20:00,8.4,6.0,30.41,ESE,111,1.0,2.0,88,0.00,,,0.00,0,weatherlink.com 1.10,2013-03-08 11:20:00,
2013-03-08 05:35:00,7.5,5.0,30.41,ESE,111,2.0,3.0,88,0.00,,,0.00,0,weatherlink.com 1.10,2013-03-08 11:35:00,
2013-03-08 05:50:00,7.1,4.0,30.41,ESE,111,0.0,3.0,87,0.00,,,0.00,0,weatherlink.com 1.10,2013-03-08 11:50:00,
2013-03-08 06:05:00,5.6,2.0,30.41,ESE,111,1.0,2.0,86,0.00,,,0.00,0,weatherlink.com 1.10,2013-03-08 12:05:00,
2013-03-08 06:20:00,5.0,2.0,30.41,ESE,111,1.0,2.0,87,0.00,,,0.00,5,weatherlink.com 1.10,2013-03-08 12:20:00,
2013-03-08 06:35:00,6.2,4.0,30.41,ESE,111,2.0,3.0,89,0.00,,,0.00,16,weatherlink.com 1.10,2013-03-08 12:35:00,
2013-03-08 06:50:00,7.9,5.0,30.41,ESE,111,4.0,5.0,89,0.00,,,0.00,33,weatherlink.com 1.10,2013-03-08 12:50:00,
2013-03-08 07:05:00,9.2,7.0,30.42,ESE,119,0.0,4.0,89,0.00,,,0.00,56,weatherlink.com 1.10,2013-03-08 13:05:00,
2013-03-08 07:20:00,10.5,8.0,30.42,ESE,119,1.0,2.0,90,0.00,,,0.00,95,weatherlink.com 1.10,2013-03-08 13:20:00,
2013-03-08 07:36:00,12.7,10.0,30.42,ESE,119,4.0,5.0,90,0.00,,,0.00,151,weatherlink.com 1.10,2013-03-08 13:36:00,
2013-03-08 07:51:00,15.4,14.0,30.42,SE,140,4.0,6.0,92,0.00,,,0.00,178,weatherlink.com 1.10,2013-03-08 13:51:00,
2013-03-08 08:06:00,15.9,14.0,30.42,SE,128,4.0,5.0,90,0.00,,,0.00,169,weatherlink.com 1.10,2013-03-08 14:06:00,
2013-03-08 08:21:00,16.7,15.0,30.42,SE,134,4.0,5.0,92,0.00,,,0.00,265,weatherlink.com 1.10,2013-03-08 14:21:00,
2013-03-08 08:36:00,18.1,16.0,30.42,ESE,120,8.0,9.0,91,0.00,,,0.00,341,weatherlink.com 1.10,2013-03-08 14:36:00,
2013-03-08 08:51:00,18.7,17.0,30.42,ESE,122,11.0,12.0,92,0.00,,,0.00,413,weatherlink.com 1.10,2013-03-08 14:51:00,
2013-03-08 09:06:00,19.7,18.0,30.42,ESE,119,10.0,12.0,92,0.00,,,0.00,397,weatherlink.com 1.10,2013-03-08 15:06:00,
2013-03-08 09:21:00,20.9,19.0,30.42,SE,125,8.0,12.0,92,0.00,,,0.00,348,weatherlink.com 1.10,2013-03-08 15:21:00,
2013-03-08 09:36:00,22.7,21.0,30.41,SE,127,8.0,11.0,92,0.00,,,0.00,566,weatherlink.com 1.10,2013-03-08 15:36:00,
2013-03-08 16:57:00,32.7,28.0,30.33,SE,130,10.0,13.0,81,0.00,,,0.00,199,weatherlink.com 1.10,2013-03-08 22:57:00,
2013-03-08 17:07:00,32.6,27.0,30.33,SE,131,8.0,11.0,81,0.00,,,0.00,137,weatherlink.com 1.10,2013-03-08 23:07:00,
2013-03-08 17:22:00,32.3,27.0,30.33,SE,144,9.0,13.0,81,0.00,,,0.00,84,weatherlink.com 1.10,2013-03-08 23:22:00,
2013-03-08 17:37:00,32.2,27.0,30.32,SSE,147,11.0,14.0,81,0.00,,,0.00,35,weatherlink.com 1.10,2013-03-08 23:37:00,
2013-03-08 17:52:00,31.7,27.0,30.32,SE,142,10.0,14.0,82,0.00,,,0.00,12,weatherlink.com 1.10,2013-03-08 23:52:00,
2013-03-08 18:07:00,31.0,26.0,30.32,SE,134,8.0,12.0,82,0.00,,,0.00,0,weatherlink.com 1.10,2013-03-09 00:07:00,
2013-03-08 18:22:00,30.1,26.0,30.33,SE,140,9.0,11.0,84,0.00,,,0.00,0,weatherlink.com 1.10,2013-03-09 00:22:00,
2013-03-08 18:37:00,29.3,24.0,30.33,SE,132,7.0,8.0,82,0.00,,,0.00,0,weatherlink.com 1.10,2013-03-09 00:37:00,
2013-03-08 18:52:00,26.2,22.0,30.33,SE,124,7.0,9.0,85,0.00,,,0.00,0,weatherlink.com 1.10,2013-03-09 00:52:00,
2013-03-08 19:07:00,26.5,23.0,30.32,ESE,116,9.0,10.0,88,0.00,,,0.00,0,weatherlink.com 1.10,2013-03-09 01:07:00,
2013-03-08 19:22:00,26.2,22.0,30.32,ESE,119,9.0,10.0,85,0.00,,,0.00,0,weatherlink.com 1.10,2013-03-09 01:22:00,
2013-03-08 19:37:00,24.7,22.0,30.31,ESE,120,10.0,11.0,88,0.00,,,0.00,0,weatherlink.com 1.10,2013-03-09 01:37:00,
2013-03-08 19:52:00,25.3,22.0,30.31,ESE,119,10.0,11.0,88,0.00,,,0.00,0,weatherlink.com 1.10,2013-03-09 01:52:00,
2013-03-08 20:07:00,26.1,23.0,30.30,ESE,117,10.0,13.0,89,0.00,,,0.00,0,weatherlink.com 1.10,2013-03-09 02:07:00,
2013-03-08 20:22:00,24.9,22.0,30.29,SE,130,7.0,10.0,88,0.00,,,0.00,0,weatherlink.com 1.10,2013-03-09 02:22:00,
2013-03-08 20:37:00,25.8,23.0,30.28,SE,127,10.0,11.0,89,0.00,,,0.00,0,weatherlink.com 1.10,2013-03-09 02:37:00,
2013-03-08 20:52:00,26.9,24.0,30.27,SE,128,14.0,14.0,88,0.00,,,0.00,0,weatherlink.com 1.10,2013-03-09 02:52:00,
2013-03-08 21:07:00,28.0,25.0,30.27,SE,136,14.0,18.0,87,0.00,,,0.00,0,weatherlink.com 1.10,2013-03-09 03:07:00,
2013-03-08 21:22:00,28.7,25.0,30.27,SE,134,16.0,18.0,87,0.00,,,0.00,0,weatherlink.com 1.10,2013-03-09 03:22:00,
2013-03-08 21:37:00,29.3,26.0,30.27,SE,131,14.0,19.0,87,0.00,,,0.00,0,weatherlink.com 1.10,2013-03-09 03:37:00,
2013-03-08 21:52:00,29.6,26.0,30.27,SE,126,15.0,20.0,85,0.00,,,0.00,0,weatherlink.com 1.10,2013-03-09 03:52:00,
2013-03-08 22:07:00,29.4,26.0,30.27,SE,137,16.0,17.0,85,0.00,,,0.00,0,weatherlink.com 1.10,2013-03-09 04:07:00,
2013-03-08 22:22:00,28.7,25.0,30.26,SE,131,12.0,16.0,85,0.00,,,0.00,0,weatherlink.com 1.10,2013-03-09 04:22:00,
2013-03-08 22:37:00,28.1,25.0,30.26,SE,128,9.0,14.0,86,0.00,,,0.00,0,weatherlink.com 1.10,2013-03-09 04:37:00,
2013-03-08 22:52:00,28.3,25.0,30.25,SE,134,8.0,10.0,86,0.00,,,0.00,0,weatherlink.com 1.10,2013-03-09 04:52:00,
2013-03-08 23:07:00,28.7,25.0,30.24,SE,136,3.0,9.0,86,0.00,,,0.00,0,weatherlink.com 1.10,2013-03-09 05:07:00,
2013-03-08 23:22:00,29.0,25.0,30.25,SE,136,8.0,11.0,85,0.00,,,0.00,0,weatherlink.com 1.10,2013-03-09 05:22:00,
2013-03-08 23:37:00,29.3,25.0,30.23,SE,138,8.0,14.0,85,0.00,,,0.00,0,weatherlink.com 1.10,2013-03-09 05:37:00,
2013-03-08 23:52:00,29.2,25.0,30.23,SE,140,9.0,14.0,85,0.00,,,0.00,0,weatherlink.com 1.10,2013-03-09 05:52:00,